[[{"header":{"parameterUnit":"m.s-1","parameterCategory":1,"la1":30.2991,"la2":30.254,"lo1":-89.0895,"lo2":-89.0444,"dy":0.0017,"dx":0.0017,"nx":28,"ny":28,"refTime":"2024-03-05T09:00:00:Z","depth":0,"parameterNumber":2,"parameterNumberName":"U-component_of_WINDS"},"data":[0,0,0,0,0,0,0,0,0,0,0,0,0,0,0,0,0,0,0,0,0,0,0,0,0,0,0,0,0,0,0,0,0,0,0,0,0,0,0,0,0,0,0,0,0,0,0,0,0,0,0,0,0,0,0,0,0,0,-4.3224,-4.3224,0,-4.3201,-4.3201,-4.32,-4.3052,-4.3049,-4.3045,-4.3042,-4.302,-4.3023,-4.3025,0,0,0,0,0,0,0,0,0,0,0,0,0,-4.3143,-4.3145,-4.3224,-4.3224,-4.3223,-4.3201,-4.3201,-4.32,-4.3053,-4.3048,-4.3044,-4.304,-4.3019,-4.3022,-4.3026,0,0,0,0,0,0,0,0,0,0,0,0,0,-4.3155,-4.3146,-4.3224,-4.3147,-4.314,-4.3201,-4.3201,-4.32,-4.3054,-4.3048,-4.3043,-4.3038,-4.3018,-4.3022,-4.3026,-4.316,0,0,-4.3039,-4.3041,0,0,0,0,0,0,0,0,-4.3155,-4.3158,-4.3159,-4.3152,-4.3145,-4.3124,-4.3164,-4.3187,-4.3055,-4.3087,-4.3042,-4.3035,-4.3059,-4.306,-4.3067,-4.3159,-4.3158,-4.3039,-4.3042,-4.3044,-4.3045,0,0,0,0,0,0,0,-4.3154,-4.3158,-4.3215,-4.3159,-4.315,-4.3115,-4.311,-4.3168,-4.3103,-4.3083,-4.3073,-4.3072,-4.3054,-4.3063,-4.3065,-4.3158,-4.3039,-4.3043,-4.3045,-4.3047,-4.336,-4.3365,0,0,0,0,0,0,-4.3164,-4.3159,-4.3215,-4.3214,-4.3136,-4.3121,-4.3116,-4.3136,-4.3102,-4.3092,-4.3076,-4.3065,-4.3059,-4.3061,-4.3064,-4.3219,-4.3044,-4.3047,-4.305,-4.3354,-4.3361,-4.3367,0,0,0,0,0,0,-4.3162,-4.317,-4.3216,-4.3183,-4.3187,-4.3128,-4.3152,-4.3138,-4.3147,-4.3097,-4.3085,-4.3098,-4.3055,-4.3058,-4.3137,-4.3217,-4.3049,-4.3053,-4.3347,-4.3356,-4.3364,-4.3531,0,0,0,0,0,0,-4.3161,-4.3171,-4.322,-4.3186,-4.3189,-4.329,-4.3156,-4.3142,-4.3155,-4.314,-4.3114,-4.3104,-4.3051,-4.3132,-4.3142,-4.3219,-4.3056,-4.334,-4.3351,-4.3361,-4.3518,-4.3544,-4.3567,0,0,0,0,0,-4.3158,-4.3268,-4.3223,-4.3231,-4.3249,-4.3294,-4.3296,-4.3232,-4.3162,-4.3211,-4.3179,-4.3105,-4.3207,-4.3141,-4.3151,-4.3231,-4.3335,-4.3348,-4.3361,-4.3507,-4.3539,-4.3566,0,0,0,0,0,0,-4.3313,-4.3262,-4.3212,-4.3313,-4.3309,-4.3269,-4.333,-4.3268,-4.3284,-4.3269,-4.319,-4.3185,-4.3277,-4.3261,-4.319,-4.336,-4.3258,-4.3274,-4.3366,-4.3396,-4.342,-4.3422,-4.306,0,0,0,0,0,-4.3359,-4.3399,-4.3352,-4.3446,-4.3447,-4.339,-4.3407,-4.3358,-4.3351,-4.3348,-4.3322,-4.3319,-4.335,-4.3372,-4.3398,-4.3515,-4.3508,-4.3575,-4.36,-4.362,-4.3635,-4.3697,-4.3727,-4.341,-4.341,-4.341,0,0,-4.3454,-4.3431,-4.3461,-4.3477,-4.3468,-4.3513,-4.3389,-4.3441,-4.3473,-4.3356,-4.3429,-4.3411,-4.3402,-4.3501,-4.3544,-4.3492,-4.3721,-4.3637,-4.3653,-4.3657,-4.3714,-4.3744,-4.3771,-4.3419,-4.3418,-4.3416,0,0,-4.365,-4.3637,-4.3714,-4.3708,-4.3696,-4.3658,-4.3677,-4.3647,-4.363,-4.3702,-4.3615,-4.3654,-4.3708,-4.3706,-4.3712,-4.3911,-4.3843,-4.3921,-4.4048,-4.4111,-4.4136,-4.4157,-4.4229,-4.4256,-4.3936,-4.3936,-4.3937,0,-4.377,-4.3833,-4.3762,-4.382,-4.383,-4.3726,-4.3805,-4.3803,-4.3801,-4.3811,-4.3753,-4.3821,-4.3807,-4.3906,-4.3954,-4.3962,-4.3982,-4.3924,-4.4138,-4.4159,-4.4178,-4.4246,-4.4273,-4.3946,-4.3945,-4.3944,-4.3943,0,-4.3981,-4.4027,-4.4091,-4.4092,-4.4109,-4.4178,-4.4118,-4.4145,-4.4095,-4.4063,-4.4139,-4.412,-4.414,-4.416,-4.4112,-4.4253,-4.4221,-4.4151,-4.4047,-4.4219,-4.4281,-4.4307,-4.396,-4.3956,-4.3953,-4.3951,0,0,-4.4273,-4.4235,-4.426,-4.426,-4.4241,-4.4275,-4.4339,-4.4359,-4.4384,-4.4387,-4.444,-4.449,-4.4426,-4.4433,-4.4384,-4.4439,-4.4599,-4.4362,-4.4361,-4.4408,-4.4755,-4.4808,-4.4839,-4.4554,-4.4559,-4.4562,-4.4756,0,-4.4462,-4.4569,-4.4508,-4.4625,-4.4667,-4.457,-4.4626,-4.4622,-4.4594,-4.4626,-4.4596,-4.4633,-4.4545,-4.4549,-4.4599,-4.4569,-4.4668,-4.4554,-4.4604,-4.4607,-4.461,-4.4871,-4.4927,-4.511,-4.478,-4.4784,-4.4787,0,-4.4696,-4.471,-4.4831,-4.4805,-4.482,-4.4872,-4.4887,-4.4919,-4.4912,-4.4888,-4.4898,-4.4836,-4.4898,-4.4796,-4.4882,-4.4807,-4.4824,-4.4813,-4.4818,-4.4821,-4.4707,-4.4882,-4.5167,-4.5195,-4.4824,-4.4821,-4.4818,0,-4.4899,-4.4947,-4.5025,-4.5028,-4.5,-4.5039,-4.503,-4.5017,-4.5034,-4.5047,-4.5058,-4.5078,-4.509,-4.5108,-4.5054,-4.4984,-4.5149,-4.5041,-4.5132,-4.5134,-4.5171,-4.5169,-4.5464,-4.5181,-4.5181,-4.518,-4.518,0,-4.5116,-4.5194,-4.5116,-4.5165,-4.525,-4.518,-4.5267,-4.5247,-4.5237,-4.5281,-4.5199,-4.5242,-4.5168,-4.5204,-4.5163,-4.5242,-4.5247,-4.5231,-4.5219,-4.5238,-4.5241,-4.5249,-4.5235,-4.5187,-4.5186,-4.5185,-4.5183,0,-4.5356,-4.5307,-4.5387,-4.5354,-4.5348,-4.5413,-4.5385,-4.5429,-4.5397,-4.5454,-4.5463,-4.5412,-4.5451,-4.5399,-4.5432,-4.5404,-4.5513,-4.5481,-4.5515,-4.5507,-4.5601,-4.5593,-4.5911,-4.5949,-4.5642,-4.5645,-4.5647,0,-4.5498,-4.5556,-4.5531,-4.5554,-4.5549,-4.5588,-4.5605,-4.5539,-4.5561,-4.5559,-4.5604,-4.5636,-4.5658,-4.5724,-4.5691,-4.5717,-4.5686,-4.5795,-4.5689,-4.5708,-4.5689,-4.5686,-4.5692,-4.5817,-4.5821,-4.5824,-4.5826,0,-4.5757,-4.573,-4.5757,-4.5778,-4.58,-4.5813,-4.5819,-4.5843,-4.5775,-4.5803,-4.5842,-4.5859,-4.5894,-4.5927,-4.5944,-4.5935,-4.5871,-4.586,-4.5883,-4.5904,-4.5922,-4.5915,-4.5576,-4.5853,-4.5851,-4.5849,-4.5847,-4.5846,-4.5952,-4.6,-4.599,-4.6024,-4.6022,-4.6031,-4.6072,-4.6045,-4.6076,-4.6099,-4.6058,-4.6108,-4.6101,-4.6118,-4.6116,-4.6155,-4.6107,-4.614,-4.6148,-4.6157,-4.6172,-4.5915,-4.6158,-4.6157,-4.6156,-4.6155,-4.6155,0,-4.6207,-4.6197,-4.6229,-4.6241,-4.6268,-4.6205,-4.621,-4.6237,-4.6282,-4.6281,-4.6305,-4.635,-4.6383,-4.6353,-4.6379,-4.6416,-4.6388,-4.6426,-4.6422,-4.6422,-4.6212,-4.6191,-4.6448,-4.6448,-4.6448,-4.6448,-4.6448,-4.6448,-4.6343,-4.6421,-4.6394,-4.6471,-4.6459,-4.6508,-4.6516,-4.6524,-4.6523,-4.6578,-4.6605,-4.6585,-4.6573,-4.6598,-4.6626,-4.6616,-4.6631,-4.668,-4.666,-4.6465,-4.6436,-4.6409,-4.6388,-4.6683,-4.6683,-4.6866,-4.6868,-4.6869]},{"header":{"parameterUnit":"m.s-1","parameterCategory":1,"la1":30.2991,"la2":30.254,"lo1":-89.0895,"lo2":-89.0444,"dy":0.0017,"dx":0.0017,"nx":28,"ny":28,"refTime":"2024-03-05T09:00:00:Z","depth":0,"parameterNumber":3,"parameterNumberName":"V-component_of_WINDS"},"data":[0,0,0,0,0,0,0,0,0,0,0,0,0,0,0,0,0,0,0,0,0,0,0,0,0,0,0,0,0,0,0,0,0,0,0,0,0,0,0,0,0,0,0,0,0,0,0,0,0,0,0,0,0,0,0,0,0,0,1.6565,1.6565,0,1.6558,1.6558,1.6558,1.6527,1.6527,1.6526,1.6525,1.6517,1.6518,1.6518,0,0,0,0,0,0,0,0,0,0,0,0,0,1.6554,1.6554,1.6565,1.6565,1.6565,1.6558,1.6558,1.6558,1.6528,1.6527,1.6526,1.6525,1.6517,1.6518,1.6518,0,0,0,0,0,0,0,0,0,0,0,0,0,1.6554,1.6554,1.6565,1.6549,1.6548,1.6558,1.6558,1.6558,1.6528,1.6527,1.6526,1.6525,1.6517,1.6517,1.6518,1.6543,0,0,1.652,1.652,0,0,0,0,0,0,0,0,1.6554,1.6554,1.6552,1.655,1.6549,1.6543,1.6551,1.6553,1.6528,1.6535,1.6525,1.6524,1.6526,1.6526,1.6527,1.6543,1.6543,1.652,1.6521,1.6521,1.6521,0,0,0,0,0,0,0,1.6554,1.6555,1.6562,1.6552,1.655,1.6543,1.6541,1.6551,1.6537,1.6535,1.6532,1.6532,1.6525,1.6527,1.6527,1.6542,1.652,1.6521,1.6521,1.6521,1.6581,1.6582,0,0,0,0,0,0,1.6556,1.6555,1.6563,1.6562,1.6549,1.6544,1.6542,1.6546,1.6537,1.6534,1.6533,1.6531,1.6526,1.6526,1.6526,1.6557,1.6521,1.6521,1.6522,1.658,1.6581,1.6583,0,0,0,0,0,0,1.6556,1.6557,1.6563,1.6558,1.6558,1.6545,1.6549,1.6546,1.6547,1.6535,1.6533,1.6537,1.6525,1.6525,1.654,1.6556,1.6522,1.6522,1.6579,1.658,1.6582,1.6617,0,0,0,0,0,0,1.6556,1.6557,1.6567,1.6558,1.6559,1.6577,1.655,1.6547,1.6549,1.6545,1.6538,1.6536,1.6524,1.6539,1.6541,1.6556,1.6523,1.6577,1.6579,1.6581,1.6615,1.662,1.6625,0,0,0,0,0,1.6556,1.6576,1.6567,1.6568,1.657,1.6577,1.6578,1.6564,1.655,1.6559,1.6552,1.6536,1.6554,1.6541,1.6542,1.6559,1.6576,1.6579,1.6581,1.6612,1.6619,1.6625,0,0,0,0,0,0,1.6585,1.6575,1.6565,1.6583,1.6582,1.6572,1.6583,1.6571,1.6573,1.657,1.6553,1.6552,1.6569,1.6565,1.6551,1.6584,1.6563,1.6566,1.6586,1.6592,1.6597,1.6598,1.6523,0,0,0,0,0,1.6594,1.6602,1.6592,1.6609,1.6609,1.6597,1.6599,1.6589,1.6587,1.6586,1.658,1.6578,1.6584,1.6587,1.6591,1.6614,1.6613,1.6626,1.6631,1.6635,1.6638,1.6652,1.6658,1.6592,1.6592,1.6591,0,0,1.6612,1.6607,1.6613,1.6615,1.6612,1.6621,1.6596,1.6605,1.6612,1.6587,1.6601,1.6597,1.6594,1.6613,1.6621,1.661,1.6657,1.6639,1.6642,1.6643,1.6655,1.6662,1.6667,1.6593,1.6593,1.6593,0,0,1.6649,1.6646,1.6661,1.666,1.6657,1.6649,1.6653,1.6646,1.6643,1.6657,1.6639,1.6646,1.6656,1.6655,1.6656,1.6696,1.6682,1.6698,1.6724,1.6738,1.6743,1.6748,1.6763,1.6769,1.6701,1.6701,1.6701,0,1.6672,1.6684,1.667,1.6681,1.6684,1.6663,1.6679,1.6678,1.6677,1.6679,1.6667,1.668,1.6676,1.6696,1.6706,1.6707,1.6711,1.6699,1.6743,1.6748,1.6752,1.6767,1.6773,1.6703,1.6703,1.6702,1.6702,0,1.6713,1.6722,1.6734,1.6735,1.6738,1.6752,1.674,1.6746,1.6736,1.673,1.6745,1.674,1.6744,1.6748,1.6738,1.6767,1.6761,1.6746,1.6725,1.6761,1.6774,1.678,1.6706,1.6705,1.6704,1.6704,0,0,1.6767,1.6762,1.6767,1.6768,1.6764,1.6771,1.6785,1.6789,1.6795,1.6795,1.6807,1.6816,1.6804,1.6805,1.6794,1.6806,1.6841,1.6791,1.679,1.6801,1.6875,1.6886,1.6893,1.6831,1.6832,1.6833,1.6875,0,1.6804,1.6826,1.6815,1.6839,1.6849,1.683,1.6842,1.6842,1.6837,1.6844,1.6838,1.6846,1.6828,1.6829,1.684,1.6834,1.6855,1.6831,1.6843,1.6843,1.6845,1.69,1.6912,1.6951,1.688,1.6881,1.6882,0,1.6849,1.6853,1.6879,1.6876,1.688,1.689,1.6895,1.6902,1.6902,1.6898,1.69,1.6888,1.6902,1.6881,1.69,1.6884,1.6888,1.6886,1.6888,1.6889,1.6865,1.6903,1.6964,1.697,1.689,1.6889,1.6889,0,1.6888,1.69,1.6917,1.6918,1.6915,1.6924,1.6923,1.6922,1.6926,1.693,1.6933,1.6939,1.6942,1.6946,1.6937,1.6922,1.6958,1.6935,1.6956,1.6956,1.6964,1.6964,1.7027,1.6966,1.6966,1.6966,1.6965,0,1.6931,1.6948,1.6935,1.6946,1.6965,1.6952,1.6971,1.6968,1.6968,1.6978,1.6962,1.6972,1.6958,1.6967,1.6959,1.6978,1.6979,1.6977,1.6974,1.6978,1.6979,1.6981,1.6979,1.6967,1.6967,1.6966,1.6966,0,1.6977,1.697,1.6988,1.6984,1.6984,1.6998,1.6995,1.7005,1.7,1.7013,1.7016,1.7008,1.7018,1.7008,1.7017,1.7012,1.7037,1.7031,1.7038,1.7036,1.7057,1.7056,1.7125,1.7134,1.7066,1.7067,1.7067,0,1.7005,1.7018,1.7017,1.7023,1.7024,1.7033,1.7038,1.7027,1.7033,1.7035,1.7046,1.7055,1.7061,1.7078,1.7073,1.7081,1.7075,1.7098,1.7076,1.708,1.7077,1.7077,1.7079,1.7103,1.7104,1.7105,1.7105,0,1.7056,1.7053,1.706,1.7068,1.7075,1.708,1.7083,1.7089,1.7078,1.7086,1.7096,1.7102,1.7112,1.7122,1.7128,1.7127,1.7115,1.7113,1.7118,1.7122,1.7127,1.7126,1.7051,1.7111,1.711,1.711,1.711,1.7109,1.7095,1.7107,1.7108,1.7118,1.712,1.7125,1.7135,1.7132,1.7141,1.7149,1.7142,1.7155,1.7157,1.7164,1.7165,1.7176,1.7166,1.7173,1.7175,1.7178,1.7182,1.7125,1.7177,1.7177,1.7177,1.7176,1.7176,0,1.7147,1.7148,1.7157,1.7164,1.7172,1.716,1.7165,1.7172,1.7185,1.7187,1.7195,1.7208,1.7218,1.7215,1.7224,1.7233,1.7228,1.7236,1.7235,1.7236,1.7189,1.7184,1.724,1.724,1.724,1.724,1.724,1.724,1.7175,1.7194,1.7191,1.7212,1.7212,1.7226,1.7229,1.7234,1.7236,1.7252,1.7261,1.7259,1.726,1.7269,1.7278,1.7277,1.7281,1.7292,1.7289,1.7245,1.7239,1.7233,1.7228,1.7292,1.7292,1.7334,1.7335,1.7335]}]]